Location: Alessandria
(44.9000°N, 8.6170°E)
Time: 17:53:58
(UTC+02:00)

ISS - Pass Details

Date: 15 May 2021
Orbit: 417 x 422 km, 51.6° (Epoch: 18 June)

Event Time Altitude Azimuth Distance (km) Brightness Sun altitude
Rises 03:38:32 0° 300° (WNW) 2,374 0.0 -19.0°
Reaches altitude 10° 03:40:40 10° 305° (NW) 1,508 -0.9 -18.8°
Maximum altitude 03:44:00 57° 25° (NNE) 503 -3.1 -18.5°
Drops below altitude 10° 03:47:21 10° 105° (ESE) 1,505 -0.7 -18.1°
Sets 03:49:28 0° 110° (ESE) 2,368 0.3 -17.9°
